| time (UTC) | temp F | wind direction | speed knots | gust knots | rain 1hr in | rain 24hr in | rain mn in | humidity % | barometer mb |
| 20260507210047 | 65 | 275 | 1.7 | 8.7 | 0.00 | 0.00 | 0.00 | 63 | 1017.5 |
| 20260507204533 | 65 | 30 | 2.6 | 7.8 | 0.00 | 0.00 | 0.00 | 64 | 1017.6 |
| 20260507203027 | 63 | 56 | 1.7 | 8.7 | 0.00 | 0.00 | 0.00 | 64 | 1017.8 |
| 20260507201525 | 63 | 71 | 4.3 | 7.0 | 0.00 | 0.00 | 0.00 | 66 | 1017.9 |
| 20260507200022 | 62 | 28 | 0.9 | 5.2 | 0.00 | 0.00 | 0.00 | 67 | 1018.1 |
| 20260507194523 | 61 | 66 | 0.9 | 3.5 | 0.00 | 0.00 | 0.00 | 67 | 1018.3 |
| 20260507193004 | 60 | 329 | 2.6 | 5.2 | 0.00 | 0.00 | 0.00 | 69 | 1018.5 |
| 20260507191501 | 59 | 104 | 2.6 | 5.2 | 0.00 | 0.00 | 0.00 | 71 | 1018.7 |
| 20260507190113 | 58 | 25 | 1.7 | 5.2 | 0.00 | 0.00 | 0.00 | 72 | 1018.9 |
| 20260507184557 | 58 | 78 | 3.5 | 6.1 | 0.00 | 0.00 | 0.00 | 71 | 1019.0 |
| 20260507183113 | 57 | 45 | 1.7 | 6.1 | 0.00 | 0.00 | 0.00 | 73 | 1019.1 |
| 20260507181559 | 57 | 69 | 1.7 | 4.3 | 0.00 | 0.00 | 0.00 | 74 | 1019.2 |
| 20260507180053 | 55 | 331 | 0.9 | 4.3 | 0.00 | 0.00 | 0.00 | 78 | 1019.4 |
| 20260507174535 | 54 | 43 | 0.0 | 5.2 | 0.00 | 0.00 | 0.00 | 79 | 1019.5 |
| 20260507173042 | 53 | 355 | 0.0 | 3.5 | 0.00 | 0.00 | 0.00 | 78 | 1019.6 |
| 20260507171526 | 53 | 324 | 0.9 | 3.5 | 0.00 | 0.00 | 0.00 | 80 | 1019.6 |
| 20260507170026 | 52 | 350 | 0.9 | 4.3 | 0.00 | 0.00 | 0.00 | 80 | 1019.6 |
| 20260507164534 | 52 | 28 | 0.9 | 6.1 | 0.00 | 0.00 | 0.00 | 79 | 1019.6 |
| 20260507163025 | 52 | 360 | 1.7 | 4.3 | 0.00 | 0.00 | 0.00 | 80 | 1019.6 |
| 20260507161524 | 51 | 9 | 1.7 | 6.1 | 0.00 | 0.00 | 0.00 | 80 | 1019.5 |
| 20260507160026 | 51 | 5 | 0.9 | 3.5 | 0.00 | 0.00 | 0.00 | 82 | 1019.5 |
| 20260507154511 | 51 | 36 | 0.0 | 4.3 | 0.00 | 0.00 | 0.00 | 82 | 1019.5 |
| 20260507153011 | 50 | 355 | 0.9 | 5.2 | 0.00 | 0.00 | 0.00 | 82 | 1019.6 |
| 20260507151510 | 50 | 336 | 1.7 | 4.3 | 0.00 | 0.00 | 0.00 | 83 | 1019.6 |
| 20260507150010 | 49 | 11 | 0.9 | 4.3 | 0.00 | 0.00 | 0.00 | 83 | 1019.6 |
| 20260507144509 | 49 | 360 | 2.6 | 5.2 | 0.00 | 0.00 | 0.00 | 84 | 1019.6 |
| 20260507143017 | 49 | 355 | 0.0 | 3.5 | 0.00 | 0.00 | 0.00 | 85 | 1019.6 |
| 20260507141515 | 49 | 344 | 0.0 | 3.5 | 0.00 | 0.00 | 0.00 | 85 | 1019.5 |
| 20260507140006 | 49 | 5 | 0.0 | 3.5 | 0.00 | 0.00 | 0.00 | 86 | 1019.3 |
| 20260507134548 | 49 | 42 | 0.0 | 3.5 | 0.00 | 0.00 | 0.00 | 86 | 1019.2 |
| 20260507133049 | 49 | 350 | 0.0 | 0.0 | 0.00 | 0.00 | 0.00 | 87 | 1019.2 |
| 20260507131529 | 49 | 342 | 0.0 | 0.0 | 0.00 | 0.00 | 0.00 | 87 | 1019.2 |
| 20260507130037 | 49 | 18 | 0.0 | 3.5 | 0.00 | 0.00 | 0.00 | 87 | 1019.3 |
| 20260507124535 | 49 | 5 | 0.0 | 3.5 | 0.00 | 0.00 | 0.00 | 87 | 1019.3 |
| 20260507123025 | 49 | 20 | 0.0 | 2.6 | 0.00 | 0.00 | 0.00 | 86 | 1019.2 |
| 20260507121524 | 49 | 18 | 0.9 | 3.5 | 0.00 | 0.00 | 0.00 | 87 | 1019.3 |
| 20260507120023 | 50 | 21 | 0.0 | 0.0 | 0.00 | 0.00 | 0.00 | 87 | 1019.3 |
| 20260507114530 | 50 | 22 | 0.0 | 0.0 | 0.00 | 0.00 | 0.00 | 86 | 1019.4 |
| 20260507113038 | 50 | 22 | 0.0 | 0.0 | 0.00 | 0.00 | 0.00 | 87 | 1019.5 |
| 20260507111507 | 50 | 22 | 0.0 | 4.3 | 0.00 | 0.00 | 0.00 | 87 | 1019.5 |
| 20260507110010 | 50 | 355 | 0.0 | 2.6 | 0.00 | 0.00 | 0.00 | 87 | 1019.6 |
| 20260507104506 | 50 | 355 | 0.0 | 1.7 | 0.00 | 0.00 | 0.00 | 87 | 1019.7 |
| 20260507103004 | 50 | 355 | 1.7 | 4.3 | 0.00 | 0.00 | 0.00 | 87 | 1019.7 |
| 20260507101510 | 50 | 40 | 0.0 | 0.9 | 0.00 | 0.00 | 0.00 | 87 | 1019.8 |
| 20260507100004 | 50 | 40 | 0.0 | 2.6 | 0.00 | 0.00 | 0.00 | 87 | 1019.8 |
| 20260507094501 | 50 | 53 | 0.0 | 0.0 | 0.00 | 0.00 | 0.00 | 87 | 1019.9 |
| 20260507093001 | 51 | 53 | 0.0 | 0.0 | 0.00 | 0.00 | 0.00 | 87 | 1020.0 |
| 20260507091556 | 51 | 53 | 0.0 | 0.0 | 0.00 | 0.00 | 0.00 | 87 | 1020.0 |
| 20260507090048 | 51 | 53 | 0.0 | 0.0 | 0.00 | 0.00 | 0.00 | 87 | 1020.1 |
| 20260507084550 | 51 | 53 | 1.7 | 4.3 | 0.00 | 0.00 | 0.00 | 87 | 1020.2 |
| 20260507083044 | 51 | 55 | 2.6 | 4.3 | 0.00 | 0.00 | 0.00 | 86 | 1020.2 |
| 20260507081552 | 51 | 51 | 0.9 | 3.5 | 0.00 | 0.00 | 0.00 | 85 | 1020.3 |
| 20260507080044 | 52 | 9 | 0.0 | 2.6 | 0.00 | 0.00 | 0.00 | 85 | 1020.3 |
| 20260507074548 | 52 | 347 | 0.0 | 3.5 | 0.00 | 0.00 | 0.00 | 85 | 1020.2 |
| 20260507073041 | 52 | 17 | 0.0 | 4.3 | 0.00 | 0.00 | 0.00 | 85 | 1020.1 |
| 20260507071521 | 52 | 360 | 2.6 | 5.2 | 0.00 | 0.00 | 0.00 | 85 | 1020.0 |
| 20260507070022 | 52 | 30 | 0.0 | 3.5 | 0.00 | 0.00 | 0.00 | 85 | 1020.1 |
| 20260507064502 | 53 | 15 | 1.7 | 5.2 | 0.00 | 0.00 | 0.00 | 85 | 1020.0 |
| 20260507063000 | 53 | 17 | 1.7 | 4.3 | 0.00 | 0.00 | 0.00 | 84 | 1020.1 |
| 20260507061548 | 53 | 21 | 0.0 | 5.2 | 0.00 | 0.00 | 0.00 | 84 | 1020.1 |
| 20260507060056 | 53 | 9 | 1.7 | 5.2 | 0.00 | 0.00 | 0.00 | 84 | 1020.0 |
| 20260507054545 | 54 | 9 | 0.0 | 3.5 | 0.00 | 0.00 | 0.00 | 84 | 1020.0 |
| 20260507053046 | 54 | 16 | 3.5 | 7.0 | 0.00 | 0.00 | 0.00 | 83 | 1020.1 |
| 20260507051541 | 55 | 360 | 1.7 | 7.0 | 0.00 | 0.00 | 0.00 | 83 | 1020.0 |
| 20260507050042 | 55 | 360 | 0.9 | 4.3 | 0.00 | 0.00 | 0.00 | 84 | 1020.0 |
| 20260507044541 | 56 | 34 | 0.0 | 4.3 | 0.00 | 0.00 | 0.00 | 83 | 1019.9 |
| 20260507043054 | 56 | 21 | 2.6 | 6.1 | 0.00 | 0.00 | 0.00 | 83 | 1019.8 |
| 20260507041527 | 56 | 343 | 1.7 | 5.2 | 0.00 | 0.00 | 0.00 | 82 | 1019.6 |
| 20260507040027 | 57 | 320 | 1.7 | 6.1 | 0.00 | 0.00 | 0.00 | 82 | 1019.4 |
| 20260507034533 | 58 | 5 | 1.7 | 5.2 | 0.00 | 0.00 | 0.00 | 82 | 1019.1 |
| 20260507033026 | 59 | 355 | 0.0 | 5.2 | 0.00 | 0.00 | 0.00 | 81 | 1018.9 |
| 20260507031525 | 59 | 350 | 2.6 | 7.0 | 0.00 | 0.00 | 0.00 | 80 | 1018.7 |
| 20260507030024 | 61 | 332 | 2.6 | 5.2 | 0.00 | 0.00 | 0.00 | 79 | 1018.6 |
| 20260507024524 | 61 | 38 | 0.9 | 7.0 | 0.00 | 0.00 | 0.00 | 78 | 1018.5 |
| 20260507023024 | 62 | 84 | 1.7 | 9.6 | 0.00 | 0.00 | 0.00 | 77 | 1018.4 |
| 20260507021511 | 63 | 344 | 0.9 | 6.1 | 0.00 | 0.00 | 0.00 | 74 | 1018.5 |
| 20260507020013 | 63 | 261 | 0.0 | 3.5 | 0.00 | 0.00 | 0.00 | 72 | 1018.5 |
| 20260507014510 | 64 | 226 | 2.6 | 5.2 | 0.00 | 0.00 | 0.00 | 72 | 1018.5 |
| 20260507013009 | 65 | 248 | 3.5 | 6.1 | 0.00 | 0.00 | 0.00 | 68 | 1018.5 |
| 20260507011511 | 66 | 337 | 0.9 | 3.5 | 0.00 | 0.00 | 0.00 | 69 | 1018.6 |
| 20260507010006 | 65 | 337 | 1.7 | 4.3 | 0.00 | 0.00 | 0.00 | 69 | 1018.8 |
| 20260507004505 | 65 | 238 | 3.5 | 5.2 | 0.00 | 0.00 | 0.00 | 69 | 1018.8 |
| 20260507003006 | 66 | 284 | 2.6 | 7.8 | 0.00 | 0.00 | 0.00 | 67 | 1018.9 |
| 20260507001616 | 66 | 257 | 1.7 | 5.2 | 0.00 | 0.00 | 0.00 | 69 | 1018.8 |
| 20260507000047 | 65 | 279 | 3.5 | 5.2 | 0.00 | 0.00 | 0.00 | 71 | 1018.8 |
| 20260506234552 | 64 | 306 | 2.6 | 7.0 | 0.00 | 0.00 | 0.00 | 72 | 1018.9 |
| 20260506233045 | 64 | 316 | 2.6 | 7.0 | 0.00 | 0.00 | 0.00 | 73 | 1019.0 |
| 20260506231544 | 64 | 251 | 6.1 | 8.7 | 0.00 | 0.00 | 0.00 | 73 | 1018.9 |
| 20260506230053 | 64 | 263 | 4.3 | 8.7 | 0.00 | 0.00 | 0.00 | 73 | 1019.1 |
| 20260506224542 | 64 | 244 | 2.6 | 9.6 | 0.00 | 0.00 | 0.00 | 75 | 1019.1 |
| 20260506223040 | 65 | 317 | 2.6 | 7.8 | 0.00 | 0.00 | 0.00 | 71 | 1019.2 |
| 20260506221536 | 64 | 348 | 3.5 | 6.1 | 0.00 | 0.00 | 0.00 | 73 | 1019.2 |
| 20260506220035 | 62 | 288 | 0.9 | 7.0 | 0.00 | 0.00 | 0.00 | 77 | 1019.5 |
| 20260506214529 | 63 | 270 | 5.2 | 8.7 | 0.00 | 0.00 | 0.00 | 76 | 1019.6 |
| 20260506213026 | 62 | 295 | 4.3 | 6.1 | 0.00 | 0.00 | 0.00 | 78 | 1019.6 |
| 20260506211523 | 61 | 259 | 0.9 | 6.1 | 0.00 | 0.00 | 0.00 | 81 | 1019.7 |